User: anonymous   Login
Location: Fort Wayne
(41.1310°N, 85.1290°W)
Time: 16:41:34
(UTC-04:00)
Language:

Meteor 2-10 Rocket - Orbit

View from above orbital plane
View from above orbital plane
View from above satellite
View from above satellite

Ground track
Ground track

The orbit data is extracted from the following two-line orbital elements,

1 14453U 83109B   18114.57918331  .00000036  00000-0  98678-5 0  9992
2 14453  81.1656 153.0464 0104017 242.4761 116.5818 14.24693756791866
Epoch (UTC): 24 April 2018 13:54:01
Eccentricity: 0.0104017
inclination: 81.1656°
perigee height: 735 km
apogee height: 884 km
right ascension of ascending node: 153.0464°
argument of perigee: 242.4761°
revolutions per day: 14.24693756
mean anomaly at epoch: 116.5818°
orbit number at epoch: 79186

The dashed part of the orbit path shows where the satellite is in the earth's shadow,  

DLR